SDM2112 ULAA-ULMK

Flight info

Callsign SDM2112
Flight time N/A
Altitude 34000
Route KOTID3J KOTID L93 SOTOR SOTOR4A
Aircraft A319/M-SDE3FGHIRWY/LB1

Departure

Time 2026-04-26 09:51
Airport Talagi Airport (ULAA)

Arrival

Time N/A
Airport Kirovsk-Apatity Airport (ULMK)
Time Latitude Longitude Altitude Speed Heading
2026-04-26 09:24 64.59659 40.71479 40 ft 0 kts 186°
2026-04-26 09:41 64.59669 40.71482 40 ft 3 kts 188°
2026-04-26 09:42 64.59689 40.71491 36 ft 3 kts 200°
2026-04-26 09:42 64.59706 40.71511 39 ft 3 kts 229°
2026-04-26 09:42 64.59714 40.71540 40 ft 2 kts 272°
2026-04-26 09:42 64.59713 40.71547 40 ft 0 kts 275°
2026-04-26 09:44 64.59714 40.71545 40 ft 0 kts 275°
2026-04-26 09:45 64.59714 40.71524 38 ft 3 kts 275°
2026-04-26 09:45 64.59717 40.71453 40 ft 6 kts 274°
2026-04-26 09:45 64.59722 40.71334 40 ft 9 kts 276°
2026-04-26 09:45 64.59730 40.71166 40 ft 12 kts 277°
2026-04-26 09:46 64.59747 40.70948 40 ft 15 kts 280°
2026-04-26 09:46 64.59762 40.70678 40 ft 18 kts 276°
2026-04-26 09:46 64.59787 40.70380 39 ft 17 kts 309°
2026-04-26 09:46 64.59848 40.70175 39 ft 13 kts 328°
2026-04-26 09:47 64.59888 40.70065 40 ft 7 kts 278°
2026-04-26 09:47 64.59907 40.69932 40 ft 11 kts 259°
2026-04-26 09:47 64.59910 40.69734 40 ft 14 kts 274°
2026-04-26 09:47 64.59918 40.69475 40 ft 18 kts 277°
2026-04-26 09:48 64.59939 40.69158 40 ft 22 kts 277°
2026-04-26 09:48 64.59980 40.69035 40 ft 8 kts 10°
2026-04-26 09:48 64.60052 40.69057 40 ft 13 kts
2026-04-26 09:48 64.60143 40.69119 37 ft 11 kts 57°
2026-04-26 09:49 64.60145 40.69289 37 ft 0 kts 96°
2026-04-26 09:49 64.60145 40.69292 37 ft 0 kts 96°
2026-04-26 09:50 64.60136 40.69491 37 ft 44 kts 96°
2026-04-26 09:50 64.60076 40.70783 38 ft 113 kts 96°
2026-04-26 09:51 64.59977 40.73060 73 ft 163 kts 94°
2026-04-26 09:51 64.59900 40.75755 641 ft 171 kts 92°
2026-04-26 09:51 64.59858 40.78642 1180 ft 188 kts 92°
2026-04-26 09:51 64.60337 40.81460 1874 ft 197 kts 46°
2026-04-26 09:52 64.61672 40.82945 1842 ft 245 kts
2026-04-26 09:52 64.64665 40.78802 3507 ft 261 kts 308°
2026-04-26 09:52 64.65716 40.75391 4571 ft 264 kts 303°
2026-04-26 09:53 64.66765 40.71842 5586 ft 267 kts 302°
2026-04-26 09:53 64.67118 40.70647 5926 ft 268 kts 302°